HULIANWANG DIGUI-84

导读

**HULIANWANG DIGUI-84卫星**是中国于2025年9月27日发射的低轨互联网卫星,属于中国卫星互联网星座建设的组成部分。该卫星进入预定轨道后,将与其他已发射的星网卫星组网,为全球用户提供高速、稳定的互联网接入服务,推动天地一体化网络体系建设,助力中国空间基础设施的完善与发展。

Basic Information
目录编号:
65819
目录名称:
HULIANWANG DIGUI-84
国际标识:
2025-220C
轨道中心:
EARTH
卫星名称:
HULIANWANG DIGUI-84
卫星全名:
HULIANWANG DIGUI-84
卫星状态:
在轨 (已飞行259 天)
发射日期:
2025-09-27 UTC
国别 :
中国 (CN)
星等 :
--
Orbit Information
数据来源 国际轨道数据 AOE轨道数据
星历时间 2026-06-12T11:54:43+0800
20小时前
查看轨道信息
2026-06-12T23:00:00+0800
9小时前
查看轨道信息
半长轴 7546.068km 7546.063km
偏心率 0.0001312 0.0001419
轨道倾角 86.493° 86.494°
近地点辐角 86.983° 80.669°
升交点赤经 45.440° 45.284°
平近点角 273.146° 320.964°
近地点 1166.94km 1166.855km
远地点 1168.922km 1168.997km
周期 108.728分钟 108.728分钟
每日圈数 13.244078 13.24409
Detailed Information
使用方式:
暂无
2D Orbit Map
3D Orbit Map
Orbit Altitude Analysis Chart
Orbit Inclination Analysis Chart
Orbit Comprehensive Analysis Chart
View Comprehensive Chart